Time,TemperatureF,DewpointF,PressureIn,WindDirection,WindDirectionDegrees,WindSpeedMPH,WindSpeedGustMPH,Humidity,HourlyPrecipIn,Conditions,Clouds,dailyrainin,SoftwareType,DateUTC
2013-03-22 00:00:00,49.2,40.0,30.05,ENE,60,2.0,-999.0,70,-99.99,,,0.00,weatherlink.com 1.10,2013-03-22 07:00:00,
2013-03-22 00:15:00,48.6,40.0,30.05,ENE,66,0.0,-999.0,72,-99.99,,,0.00,weatherlink.com 1.10,2013-03-22 07:15:00,
2013-03-22 00:30:00,48.5,40.0,30.05,ENE,65,0.0,-999.0,73,-99.99,,,0.00,weatherlink.com 1.10,2013-03-22 07:30:00,
2013-03-22 00:45:00,48.4,40.0,30.05,ENE,66,0.0,-999.0,73,-99.99,,,0.00,weatherlink.com 1.10,2013-03-22 07:45:00,
2013-03-22 01:00:00,49.0,41.0,30.05,ENE,65,0.0,-999.0,73,-99.99,,,0.00,weatherlink.com 1.10,2013-03-22 08:00:00,
2013-03-22 01:15:00,48.7,40.0,30.05,ENE,65,0.0,-999.0,72,-99.99,,,0.00,weatherlink.com 1.10,2013-03-22 08:15:00,
2013-03-22 01:30:00,48.0,40.0,30.05,ENE,67,0.0,-999.0,73,-99.99,,,0.00,weatherlink.com 1.10,2013-03-22 08:30:00,
2013-03-22 01:45:00,47.8,40.0,30.06,ENE,66,0.0,-999.0,74,-99.99,,,0.00,weatherlink.com 1.10,2013-03-22 08:45:00,
2013-03-22 02:00:00,47.5,39.0,30.06,ENE,67,0.0,-999.0,73,-99.99,,,0.00,weatherlink.com 1.10,2013-03-22 09:00:00,
2013-03-22 02:15:00,48.5,38.0,30.05,NNW,338,0.0,-999.0,67,-99.99,,,0.00,weatherlink.com 1.10,2013-03-22 09:15:00,
2013-03-22 02:30:00,48.3,37.0,30.05,WNW,288,0.0,-999.0,65,-99.99,,,0.00,weatherlink.com 1.10,2013-03-22 09:30:00,
2013-03-22 02:45:00,50.2,37.0,30.05,WNW,302,0.0,-999.0,62,-99.99,,,0.00,weatherlink.com 1.10,2013-03-22 09:45:00,
2013-03-22 03:00:00,51.5,36.0,30.05,WNW,301,0.0,-999.0,56,-99.99,,,0.00,weatherlink.com 1.10,2013-03-22 10:00:00,
2013-03-22 03:15:00,50.2,36.0,30.05,WNW,287,1.0,-999.0,58,-99.99,,,0.00,weatherlink.com 1.10,2013-03-22 10:15:00,
2013-03-22 03:30:00,49.0,36.0,30.05,WNW,294,0.0,-999.0,61,-99.99,,,0.00,weatherlink.com 1.10,2013-03-22 10:30:00,
2013-03-22 03:45:00,49.5,36.0,30.05,NW,313,5.0,-999.0,60,-99.99,,,0.00,weatherlink.com 1.10,2013-03-22 10:45:00,
2013-03-22 04:00:00,49.2,36.0,30.05,West,273,3.0,-999.0,61,-99.99,,,0.00,weatherlink.com 1.10,2013-03-22 11:00:00,
2013-03-22 04:15:00,49.2,35.0,30.05,SSW,202,0.0,-999.0,58,-99.99,,,0.00,weatherlink.com 1.10,2013-03-22 11:15:00,
2013-03-22 04:30:00,49.4,34.0,30.05,SW,215,0.0,-999.0,56,-99.99,,,0.00,weatherlink.com 1.10,2013-03-22 11:30:00,
2013-03-22 04:45:00,49.8,34.0,30.05,North,355,2.0,-999.0,55,-99.99,,,0.00,weatherlink.com 1.10,2013-03-22 11:45:00,
2013-03-22 05:00:00,50.4,34.0,30.05,NNE,22,2.0,-999.0,54,-99.99,,,0.00,weatherlink.com 1.10,2013-03-22 12:00:00,
2013-03-22 05:15:00,50.1,34.0,30.05,WNW,292,0.0,-999.0,54,-99.99,,,0.00,weatherlink.com 1.10,2013-03-22 12:15:00,
2013-03-22 05:30:00,49.4,34.0,30.05,West,269,0.0,-999.0,55,-99.99,,,0.00,weatherlink.com 1.10,2013-03-22 12:30:00,
2013-03-22 05:45:00,50.9,31.0,30.05,NW,325,1.0,-999.0,47,-99.99,,,0.00,weatherlink.com 1.10,2013-03-22 12:45:00,
2013-03-22 06:00:00,51.3,29.0,30.05,NNW,345,1.0,-999.0,43,-99.99,,,0.00,weatherlink.com 1.10,2013-03-22 13:00:00,
2013-03-22 06:15:00,52.2,28.0,30.05,WSW,238,0.0,-999.0,39,-99.99,,,0.00,weatherlink.com 1.10,2013-03-22 13:15:00,
2013-03-22 06:30:00,52.1,33.0,30.06,NE,41,0.0,-999.0,48,-99.99,,,0.00,weatherlink.com 1.10,2013-03-22 13:30:00,
2013-03-22 06:45:00,48.9,31.0,30.06,NNW,346,0.0,-999.0,50,-99.99,,,0.00,weatherlink.com 1.10,2013-03-22 13:45:00,
2013-03-22 07:00:00,49.4,25.0,30.07,NW,318,2.0,-999.0,39,-99.99,,,0.00,weatherlink.com 1.10,2013-03-22 14:00:00,
2013-03-22 07:15:00,50.5,24.0,30.07,WSW,254,2.0,-999.0,36,-99.99,,,0.00,weatherlink.com 1.10,2013-03-22 14:15:00,
2013-03-22 07:30:00,51.0,23.0,30.08,South,191,0.0,-999.0,34,-99.99,,,0.00,weatherlink.com 1.10,2013-03-22 14:30:00,
2013-03-22 07:45:00,51.2,24.0,30.08,NE,40,0.0,-999.0,34,-99.99,,,0.00,weatherlink.com 1.10,2013-03-22 14:45:00,
2013-03-22 08:00:00,51.6,24.0,30.09,WNW,295,2.0,-999.0,34,-99.99,,,0.00,weatherlink.com 1.10,2013-03-22 15:00:00,
2013-03-22 08:15:00,52.4,25.0,30.09,West,265,3.0,-999.0,34,-99.99,,,0.00,weatherlink.com 1.10,2013-03-22 15:15:00,
2013-03-22 08:31:00,52.7,24.0,30.09,SSW,203,0.0,-999.0,33,-99.99,,,0.00,weatherlink.com 1.10,2013-03-22 15:31:00,
2013-03-22 08:46:00,53.5,23.0,30.09,NNE,17,4.0,-999.0,31,-99.99,,,0.00,weatherlink.com 1.10,2013-03-22 15:46:00,
2013-03-22 09:01:00,54.2,24.0,30.10,NE,52,0.0,-999.0,31,-99.99,,,0.00,weatherlink.com 1.10,2013-03-22 16:01:00,
2013-03-22 09:16:00,54.5,25.0,30.10,WNW,297,3.0,-999.0,32,-99.99,,,0.00,weatherlink.com 1.10,2013-03-22 16:16:00,
2013-03-22 09:31:00,55.1,24.0,30.11,NNW,328,0.0,-999.0,30,-99.99,,,0.00,weatherlink.com 1.10,2013-03-22 16:31:00,
2013-03-22 09:46:00,55.0,24.0,30.11,West,263,2.0,-999.0,30,-99.99,,,0.00,weatherlink.com 1.10,2013-03-22 16:46:00,
2013-03-22 10:01:00,55.7,25.0,30.12,North,355,0.0,-999.0,30,-99.99,,,0.00,weatherlink.com 1.10,2013-03-22 17:01:00,
2013-03-22 10:16:00,56.8,27.0,30.12,WNW,296,0.0,-999.0,32,-99.99,,,0.00,weatherlink.com 1.10,2013-03-22 17:16:00,
2013-03-22 10:31:00,58.7,27.0,30.12,NW,308,0.0,-999.0,30,-99.99,,,0.00,weatherlink.com 1.10,2013-03-22 17:31:00,
2013-03-22 10:46:00,57.8,28.0,30.12,NW,313,0.0,-999.0,32,-99.99,,,0.00,weatherlink.com 1.10,2013-03-22 17:46:00,
2013-03-22 11:01:00,59.5,29.0,30.12,ENE,77,0.0,-999.0,31,-99.99,,,0.00,weatherlink.com 1.10,2013-03-22 18:01:00,
2013-03-22 12:31:00,63.9,26.0,30.12,ESE,107,4.0,-999.0,24,-99.99,,,0.00,weatherlink.com 1.10,2013-03-22 19:31:00,
2013-03-22 13:31:00,65.8,25.0,30.10,NE,45,1.0,-999.0,21,-99.99,,,0.00,weatherlink.com 1.10,2013-03-22 20:31:00,
2013-03-22 14:00:00,65.8,26.0,30.09,NNE,32,1.0,-999.0,22,-99.99,,,0.00,weatherlink.com 1.10,2013-03-22 21:00:00,
2013-03-22 14:16:00,65.6,24.0,30.08,NW,305,0.0,-999.0,21,-99.99,,,0.00,weatherlink.com 1.10,2013-03-22 21:16:00,
2013-03-22 14:31:00,66.2,27.0,30.07,SW,214,0.0,-999.0,23,-99.99,,,0.00,weatherlink.com 1.10,2013-03-22 21:31:00,
2013-03-22 14:45:00,66.5,25.0,30.07,South,175,5.0,-999.0,21,-99.99,,,0.00,weatherlink.com 1.10,2013-03-22 21:45:00,
2013-03-22 15:00:00,69.2,28.0,30.06,NW,321,4.0,-999.0,21,-99.99,,,0.00,weatherlink.com 1.10,2013-03-22 22:00:00,
2013-03-22 15:15:00,68.9,29.0,30.06,South,171,0.0,-999.0,23,-99.99,,,0.00,weatherlink.com 1.10,2013-03-22 22:15:00,
2013-03-22 15:30:00,69.2,34.0,30.05,South,189,0.0,-999.0,27,-99.99,,,0.00,weatherlink.com 1.10,2013-03-22 22:30:00,
2013-03-22 15:45:00,68.3,36.0,30.05,West,273,0.0,-999.0,30,-99.99,,,0.00,weatherlink.com 1.10,2013-03-22 22:45:00,
2013-03-22 16:00:00,68.8,38.0,30.05,NNE,13,1.0,-999.0,32,-99.99,,,0.00,weatherlink.com 1.10,2013-03-22 23:00:00,
2013-03-22 16:15:00,68.2,36.0,30.05,NW,311,1.0,-999.0,31,-99.99,,,0.00,weatherlink.com 1.10,2013-03-22 23:15:00,
2013-03-22 16:30:00,67.9,38.0,30.04,NNW,348,4.0,-999.0,34,-99.99,,,0.00,weatherlink.com 1.10,2013-03-22 23:30:00,
2013-03-22 16:45:00,67.1,38.0,30.04,West,261,5.0,-999.0,35,-99.99,,,0.00,weatherlink.com 1.10,2013-03-22 23:45:00,
2013-03-22 17:00:00,65.6,38.0,30.04,WNW,292,11.0,-999.0,36,-99.99,,,0.00,weatherlink.com 1.10,2013-03-23 00:00:00,
2013-03-22 17:15:00,64.4,37.0,30.04,WNW,284,4.0,-999.0,37,-99.99,,,0.00,weatherlink.com 1.10,2013-03-23 00:15:00,
2013-03-22 17:30:00,64.1,36.0,30.04,West,277,7.0,-999.0,36,-99.99,,,0.00,weatherlink.com 1.10,2013-03-23 00:30:00,
2013-03-22 17:45:00,64.0,36.0,30.03,NNW,340,4.0,-999.0,36,-99.99,,,0.00,weatherlink.com 1.10,2013-03-23 00:45:00,
2013-03-22 18:00:00,63.2,35.0,30.04,WNW,300,6.0,-999.0,35,-99.99,,,0.00,weatherlink.com 1.10,2013-03-23 01:00:00,
2013-03-22 18:15:00,60.2,34.0,30.03,West,268,3.0,-999.0,37,-99.99,,,0.00,weatherlink.com 1.10,2013-03-23 01:15:00,
2013-03-22 18:30:00,58.8,33.0,30.03,NW,312,6.0,-999.0,38,-99.99,,,0.00,weatherlink.com 1.10,2013-03-23 01:30:00,
2013-03-22 18:45:00,58.2,33.0,30.04,West,281,6.0,-999.0,39,-99.99,,,0.00,weatherlink.com 1.10,2013-03-23 01:45:00,
2013-03-22 19:00:00,58.0,33.0,30.04,WNW,300,0.0,-999.0,39,-99.99,,,0.00,weatherlink.com 1.10,2013-03-23 02:00:00,
2013-03-22 19:15:00,57.5,33.0,30.03,West,281,0.0,-999.0,39,-99.99,,,0.00,weatherlink.com 1.10,2013-03-23 02:15:00,
2013-03-22 19:30:00,57.3,32.0,30.04,West,277,1.0,-999.0,39,-99.99,,,0.00,weatherlink.com 1.10,2013-03-23 02:30:00,
2013-03-22 19:45:00,57.1,33.0,30.04,West,279,1.0,-999.0,40,-99.99,,,0.00,weatherlink.com 1.10,2013-03-23 02:45:00,
2013-03-22 20:00:00,56.8,33.0,30.04,West,281,3.0,-999.0,41,-99.99,,,0.00,weatherlink.com 1.10,2013-03-23 03:00:00,
2013-03-22 20:15:00,56.8,33.0,30.04,WNW,287,0.0,-999.0,40,-99.99,,,0.00,weatherlink.com 1.10,2013-03-23 03:15:00,
2013-03-22 20:30:00,56.9,33.0,30.05,WNW,291,2.0,-999.0,41,-99.99,,,0.00,weatherlink.com 1.10,2013-03-23 03:30:00,
2013-03-22 20:45:00,57.2,34.0,30.05,West,280,0.0,-999.0,42,-99.99,,,0.00,weatherlink.com 1.10,2013-03-23 03:45:00,
2013-03-22 21:00:00,56.8,35.0,30.07,NE,38,1.0,-999.0,44,-99.99,,,0.00,weatherlink.com 1.10,2013-03-23 04:00:00,
2013-03-22 21:15:00,56.9,36.0,30.06,West,275,0.0,-999.0,45,-99.99,,,0.00,weatherlink.com 1.10,2013-03-23 04:15:00,
2013-03-22 21:30:00,56.4,37.0,30.06,WNW,282,0.0,-999.0,48,-99.99,,,0.00,weatherlink.com 1.10,2013-03-23 04:30:00,
2013-03-22 21:45:00,56.1,36.0,30.07,NW,309,2.0,-999.0,47,-99.99,,,0.00,weatherlink.com 1.10,2013-03-23 04:45:00,
2013-03-22 22:00:00,55.8,36.0,30.07,West,267,0.0,-999.0,48,-99.99,,,0.00,weatherlink.com 1.10,2013-03-23 05:00:00,
2013-03-22 22:15:00,55.5,36.0,30.07,NW,307,3.0,-999.0,48,-99.99,,,0.00,weatherlink.com 1.10,2013-03-23 05:15:00,
2013-03-22 22:30:00,55.4,35.0,30.07,West,279,4.0,-999.0,47,-99.99,,,0.00,weatherlink.com 1.10,2013-03-23 05:30:00,
2013-03-22 22:45:00,56.0,35.0,30.07,NW,325,4.0,-999.0,46,-99.99,,,0.00,weatherlink.com 1.10,2013-03-23 05:45:00,
2013-03-22 23:00:00,55.1,36.0,30.08,ESE,119,0.0,-999.0,48,-99.99,,,0.00,weatherlink.com 1.10,2013-03-23 06:00:00,
2013-03-22 23:15:00,50.8,37.0,30.08,ESE,114,0.0,-999.0,60,-99.99,,,0.00,weatherlink.com 1.10,2013-03-23 06:15:00,
2013-03-22 23:30:00,49.9,38.0,30.09,East,86,0.0,-999.0,63,-99.99,,,0.00,weatherlink.com 1.10,2013-03-23 06:30:00,
2013-03-22 23:45:00,50.2,40.0,30.08,ENE,58,2.0,-999.0,68,-99.99,,,0.00,weatherlink.com 1.10,2013-03-23 06:45:00,